Find Starlink 5456

NORAD ID: 55667 Int'l Des: 2023-021 Owner: SPXS Country: US Constellation: starlink operational
LEOCIRCULAR

实时位置

正在加载3D地球...

关于 Starlink 5456

正在加载描述...

即将过境

Passes for default location (London). Set your location on the main map for personalized predictions.

高度历史

Loading altitude history...

两行轨道根数

1 55667U 23021AR 26105.18216810 -.00000591 00000-0 -41738-4 0 9992
2 55667 69.9992 72.3318 0002898 272.2843 87.7984 14.98331012174742
Epoch: Apr 15, 2026 • Age: 6 hours

当前状态

高度 587.2 km
速度 7.57 km/s
星下点 -44.71°S, 48.59°E
发射日期 Feb 17, 2023
运行时间 3.1 years
类型 internet

技术详情

分类 Payload
质量 305.00 kg
干质量 290.00 kg
总质量 305.00 kg
长度 0.20 m
直径 2.80 m
跨度 9.00 m
形状 Box + pan
制造商 SPXS
平台类型 Starlink
阶段状态 In Orbit
所有者/国家 SPXS/US

Most Searched